Ceiba, PR

1:55 PM AST on January 16, 2017 (GMT -0400)
Roosevelt Roads Ns

Weather History for TJNR - January, 2014

Change the Weather History Date:

Monday, January 13, 2014

  Actual Average Record
Temperature  
Mean Temperature 78 °F -  
Max Temperature 82 °F 81 °F 84 °F (2002)
Min Temperature 73 °F 69 °F 46 °F (2002)
Cooling Degree Days 12    
Growing Degree Days 28 (Base 50)    
Moisture  
Dew Point 70 °F    
Average Humidity 79    
Maximum Humidity 94    
Minimum Humidity 60    
Precipitation  
Precipitation 0.00 in - - ()
Sea Level Pressure  
Sea Level Pressure 30.13 in    
Wind  
Wind Speed 8 mph (East)    
Max Wind Speed 16 mph    
Max Gust Speed 23 mph    
Visibility 9 miles    
Events Rain    
Averages and records for this station are not official NWS values.
T = Trace of Precipitation, MM = Missing Value Source: NWS Daily Summary

Daily Weather History Graph

Daily Weather History Graph

Search for Another Location

Airport or City:

Trip Planner

Search our weather history database for the weather conditions in past years. The results will help you decide how hot, cold, wet, or windy it might be!

Date:

Astronomy

Jan. 13, 2014 Rise Set
Actual Time 6:57 AM AST 6:05 PM AST
Civil Twilight 6:33 AM AST 6:28 PM AST
Nautical Twilight 6:06 AM AST 6:55 PM AST
Astronomical Twilight 5:40 AM AST 7:22 PM AST
Moon 4:14 PM AST (1/13) 4:45 AM AST (1/13)
Length of Visible Light 11h 55m
Length of Day
11h 08m
Waxing Gibbous, 94% of the Moon is Illuminated
Jan 13
Waxing Gibbous
Jan 16
Full
Jan 24
Last Quarter
Jan 30
New
Feb 6
First Quarter

Hourly Weather History & Observations

Time (AST) Temp. Heat Index Dew Point Humidity Pressure Visibility Wind Dir Wind Speed Gust Speed Precip Events Conditions
12:53 AM 77.0 °F - 71.1 °F 82% 30.13 in 10.0 mi East 5.8 mph - N/A   Partly Cloudy
1:53 AM 77.0 °F - 70.0 °F 79% 30.10 in 10.0 mi East 8.1 mph - N/A   Partly Cloudy
2:53 AM 77.0 °F - 70.0 °F 79% 30.09 in 10.0 mi East 5.8 mph - N/A   Partly Cloudy
3:53 AM 77.0 °F - 70.0 °F 79% 30.08 in 10.0 mi East 8.1 mph - N/A   Partly Cloudy
4:53 AM 78.1 °F - 70.0 °F 76% 30.09 in 10.0 mi East 9.2 mph 16.1 mph N/A   Mostly Cloudy
5:13 AM 75.2 °F - 71.6 °F 89% 30.09 in 10.0 mi ESE 4.6 mph - N/A   Overcast
5:53 AM 77.0 °F - 71.1 °F 82% 30.10 in 10.0 mi ENE 6.9 mph - N/A   Scattered Clouds
6:53 AM 75.0 °F - 72.0 °F 90% 30.12 in 9.0 mi East 6.9 mph - 0.00 in Rain Light Rain
7:53 AM 75.0 °F - 72.0 °F 90% 30.14 in 10.0 mi East 5.8 mph - 0.00 in   Overcast
8:28 AM 73.4 °F - 71.6 °F 94% 30.16 in 2.0 mi East 13.8 mph - 0.00 in Rain Light Rain
8:40 AM 73.4 °F - 69.8 °F 88% 30.16 in 6.0 mi ENE 6.9 mph - 0.00 in Rain Light Rain
8:53 AM 75.9 °F - 73.0 °F 91% 30.16 in 10.0 mi ENE 4.6 mph - 0.00 in   Overcast
9:38 AM 75.2 °F - 71.6 °F 89% 30.17 in 8.0 mi SE 16.1 mph 23.0 mph N/A   Overcast
9:53 AM 75.0 °F - 72.0 °F 90% 30.18 in 10.0 mi SE 9.2 mph - 0.00 in   Overcast
10:11 AM 73.4 °F - 71.6 °F 94% 30.17 in 2.5 mi SE 9.2 mph - 0.00 in Rain Rain
10:19 AM 75.2 °F - 71.6 °F 89% 30.17 in 6.0 mi SE 13.8 mph 21.9 mph 0.00 in Rain Light Rain
10:53 AM 78.1 °F - 75.0 °F 90% 30.16 in 10.0 mi Calm Calm - 0.00 in   Overcast
11:53 AM 80.1 °F 83.2 °F 70.0 °F 71% 30.14 in 10.0 mi East 8.1 mph - N/A   Overcast
12:53 PM 82.9 °F 86.5 °F 69.1 °F 63% 30.12 in 10.0 mi ESE 15.0 mph 23.0 mph N/A   Partly Cloudy
1:53 PM 82.9 °F 86.5 °F 69.1 °F 63% 30.09 in 10.0 mi ESE 13.8 mph 23.0 mph N/A   Clear
2:53 PM 82.9 °F 85.8 °F 68.0 °F 60% 30.09 in 10.0 mi ESE 13.8 mph 21.9 mph N/A   Clear
3:53 PM 82.0 °F 85.9 °F 70.0 °F 67% 30.09 in 10.0 mi East 10.4 mph - N/A   Partly Cloudy
4:53 PM 80.1 °F 83.2 °F 70.0 °F 71% 30.10 in 10.0 mi East 6.9 mph - N/A   Clear
5:53 PM 79.0 °F - 69.1 °F 72% 30.11 in 10.0 mi East 9.2 mph - N/A   Clear
6:53 PM 79.0 °F - 68.0 °F 69% 30.11 in 10.0 mi East 9.2 mph - N/A   Clear
7:53 PM 78.1 °F - 68.0 °F 71% 30.12 in 10.0 mi East 8.1 mph - N/A   Partly Cloudy
8:53 PM 79.0 °F - 69.1 °F 72% 30.14 in 10.0 mi East 10.4 mph - N/A   Mostly Cloudy
9:06 PM 78.8 °F - 69.8 °F 74% 30.14 in 10.0 mi East 9.2 mph - N/A   Scattered Clouds
9:53 PM 78.1 °F - 70.0 °F 76% 30.14 in 10.0 mi East 6.9 mph - N/A   Mostly Cloudy
10:28 PM 78.8 °F - 69.8 °F 74% 30.13 in 10.0 mi East 10.4 mph - N/A   Scattered Clouds
10:53 PM 78.1 °F - 69.1 °F 74% 30.13 in 10.0 mi East 10.4 mph - N/A   Clear
11:53 PM 78.1 °F - 68.0 °F 71% 30.12 in 10.0 mi East 9.2 mph 17.3 mph N/A   Clear